User: anonymous   Login
Location: Hiekkapohja
(62.3333°N, 25.7833°E)
Time: 11:20:48
(UTC+00:00)
Language:

Cosmos 1655 Rocket - Orbit

View from above orbital plane
View from above orbital plane
View from above satellite
View from above satellite

Ground track
Ground track

The orbit data is extracted from the following two-line orbital elements,

1 15752U 85041B   20304.90236224 -.00000085 +00000-0 -10829-3 0  9993
2 15752 082.9460 117.9782 0023236 306.5843 053.3174 13.73114497774642
Epoch (UTC): 30 October 2020 21:39:24
Eccentricity: 0.0023236
inclination: 82.9460°
perigee height: 971 km
apogee height: 1005 km
right ascension of ascending node: 117.9782°
argument of perigee: 306.5843°
revolutions per day: 13.73114497
mean anomaly at epoch: 53.3174°
orbit number at epoch: 77464

The dashed part of the orbit path shows where the satellite is in the earth's shadow,  

DLR